Regional Weather Roundup
Issued by NWS

Home | Current Version | Previous Version | Text Only | Print | Product List | Glossary Off
Versions: 1 2 3 4 5 6 7 8 9 10 11 12 13 14 15 16 17 18 19 20 21 22 23 24 25 26 27 28 29 30 31 32 33 34 35 36 37 38 39 40 41 42 43 44 45 46 47 48 49 50

139
ASUS43 KIND 072009
RWRIN

WEATHER ROUNDUP FOR INDIANA
NATIONAL WEATHER SERVICE INDIANAPOLIS IN
300 PM EST WED DEC 07 2016

NOTE: "FAIR" INDICATES FEW OR NO CLOUDS BELOW 12,000 FEET WITH NO
SIGNIFICANT WEATHER AND/OR OBSTRUCTIONS TO VISIBILITY.

* - STATION DOES NOT REPORT WEATHER SUCH AS PRECIPITATION OR FOG.

+ - STATION NOT QUALITY CONTROLLED BY THE NATIONAL WEATHER SERVICE.
    USE DATA WITH CAUTION...ESPECIALLY DEWPOINT AND RELATIVE
    HUMIDITY OBSERVATIONS.

INZ001>003-010>013-019-020-072100-
NORTHWEST INDIANA

CITY           SKY/WX    TMP DP  RH WIND       PRES   REMARKS
KNOX *+        CLOUDY    32   7  34 W13       30.09R WCI  22
LA PORTE +     CLOUDY    30  22  72 SW14      30.08S WCI  19
MICHIGAN CITY+ CLOUDY    32  21  64 W8        30.08S WCI  25
MONTICELLO +   PTSUNNY   33  20  60 W13       30.12R WCI  23
RENSSELAER +     N/A     32  27  80 SW12      30.11F WCI  23
VALPARAISO     CLOUDY    31  21  66 W17       30.09R WCI  19

$$

LMZ046-743>745-072100-
SOUTHERN LAKE MICHIGAN

STATION/POSITION TIME  TEMP    WIND        PRES    WAVE
                       AIR SEA DIR/SP/G            HT
                 (UTC) (F)     (DEG/KT/KT) (MB)    (FT)
BURNS HARBOR     1940   32     240/ 17/ 19 1019.3R
MICHIGAN CITY    1940   30     220/ 17/ 21   N/A

$$

INZ004-005-014>016-021>024-072100-
NORTH CENTRAL INDIANA

CITY           SKY/WX    TMP DP  RH WIND       PRES   REMARKS
ELKHART        CLOUDY    32  21  64 W12       30.06R WCI  23
GOSHEN         CLOUDY    34  21  59 SW12      30.06R WCI  25
LOGANSPORT +   CLOUDY    32  25  74 W13       30.12R WCI  22
PERU/GRISSOM   CLOUDY    33  23  65 W13       30.09R WCI  24
ROCHESTER +    SUNNY     34  27  75 W14       30.10R WCI  24
SOUTH BEND     CLOUDY    30  21  69 SW15      30.07S WCI  19
WARSAW +       PTSUNNY   32  21  64 W14       30.07R WCI  22

$$

INZ006>009-017-018-025>027-072100-
NORTHEAST INDIANA

CITY           SKY/WX    TMP DP  RH WIND       PRES   REMARKS
ANGOLA *+      MOSUNNY   34  21  60 SW10      30.03S WCI  26
AUBURN +       MOSUNNY   34  23  64 SW12G17   30.06S WCI  25
FORT WAYNE     PTSUNNY   34  22  61 SW14      30.08S WCI  25
HUNTINGTON +   CLOUDY    33  22  65 W8        30.08S WCI  26
KENDALLVILLE + PTSUNNY   34  24  67 W14       30.05R WCI  24

$$

INZ028-029-035-036-043>045-051>053-072100-
WEST CENTRAL INDIANA

CITY           SKY/WX    TMP DP  RH WIND       PRES   REMARKS
CRAWFORDSVL +  CLOUDY    33  24  71 SW12G17   30.13S WCI  24
GREENCASTLE +  CLOUDY    34  23  64 W5        30.14S WCI  30
LAFAYETTE      PTSUNNY   34  23  64 W10       30.13S WCI  26
TERRE HAUTE    CLOUDY    36  22  56 SW7       30.17R

$$

INZ030>032-037>040-046>048-054>057-064-065-072100-
CENTRAL INDIANA

CITY           SKY/WX    TMP DP  RH WIND       PRES   REMARKS
CP ATTERBURY + CLOUDY    37  21  52 W6        30.14F
COLUMBUS       CLOUDY    37  25  60 W6        30.15S
FRANKFORT +    CLOUDY    36  26  65 W15       30.14R
GREENWOOD *+   CLOUDY    37  22  56 W8        30.13S
INDIANAPOLIS   CLOUDY    36  23  59 SW12      30.13R
-EAGLE CREEK   CLOUDY    37  20  50 SW6       30.12R
KOKOMO +       PTSUNNY   34  22  61 W14       30.11R WCI  25
MARION +       CLOUDY    33  25  71 SW9       30.11R HAZE    WCI  26
MT COMFORT *+  CLOUDY    37  23  56 SW8       30.12R
SHELBYVILLE    CLOUDY    37  23  56 SW9       30.12S
ZIONSVILLE +   CLOUDY    34  24  66 SW13      30.13R WCI  25

$$

INZ033-034-041-042-049-050-058-059-072100-
EAST CENTRAL INDIANA

CITY           SKY/WX    TMP DP  RH WIND       PRES   REMARKS
MUNCIE         CLOUDY    36  21  54 W12       30.10R

$$

INZ060-061-067>069-081>083-085>088-072100-
SOUTHWEST INDIANA

CITY           SKY/WX    TMP DP  RH WIND       PRES   REMARKS
EVANSVILLE     CLOUDY    42  21  43 NW8       30.18F
HUNTINGBURG *+ CLOUDY    40  19  43 CALM      30.16F
WASHINGTON +   CLOUDY    36  26  67 NW6       30.17S

$$

INZ062-063-066-070>080-084-089>092-072100-
SOUTH CENTRAL AND SOUTHEAST INDIANA

CITY           SKY/WX    TMP DP  RH WIND       PRES   REMARKS
BLOOMINGTON    CLOUDY    36  21  54 VRB3      30.14S
MADISON *+     CLOUDY    37  21  52 SW3       30.15F
NORTH VERNON + CLOUDY    37  30  75 W9        30.15S
SEYMOUR +      CLOUDY    39  23  52 W5        30.14F

$$





USA.gov is the U.S. government's official web portal to all federal, state and local government web resources and services.